Hourly Weather Centar

Today, 25 June, Friday

Time Temperature Precipitation Wind Pressure Humidity
00:00 +25°C° 0 mm 2 mps 734 mmHg 60%
01:00 +26°C° 0 mm 1 mps 734 mmHg 58%
02:00 +25°C° 0 mm 1 mps 734 mmHg 57%
03:00 +25°C° 0 mm 1 mps 733 mmHg 55%
04:00 +25°C° 0 mm 1 mps 733 mmHg 54%
05:00 +27°C° 0 mm 1 mps 733 mmHg 50%
06:00 +29°C° 0 mm 1 mps 734 mmHg 45%
07:00 +31°C° 0 mm 1 mps 734 mmHg 45%
08:00 +33°C° 0 mm 1 mps 734 mmHg 40%
09:00 +35°C° 0 mm 1 mps 734 mmHg 34%
10:00 +37°C° 0 mm 1 mps 734 mmHg 29%
11:00 +37°C° 0 mm 1 mps 734 mmHg 28%
12:00 +39°C° 0 mm 2 mps 733 mmHg 27%
13:00 +39°C° 0 mm 2 mps 733 mmHg 26%
14:00 +38°C° 0.1 mm 2 mps 733 mmHg 29%
15:00 +37°C° 0.1 mm 2 mps 733 mmHg 33%
16:00 +35°C° 0.1 mm 2 mps 732 mmHg 36%
17:00 +32°C° 0 mm 2 mps 732 mmHg 41%
18:00 +31°C° 0 mm 2 mps 732 mmHg 47%
19:00 +29°C° 0 mm 2 mps 732 mmHg 52%
20:00 +28°C° 0 mm 1 mps 732 mmHg 51%
21:00 +27°C° 0 mm 1 mps 732 mmHg 51%
22:00 +26°C° 0 mm 1 mps 733 mmHg 50%
23:00 +25°C° 0 mm 1 mps 732 mmHg 50%

Tomorrow, 26 June, Saturday

Time Temperature Precipitation Wind Pressure Humidity
00:00 +25°C° 0 mm 1 mps 732 mmHg 50%
01:00 +24°C° 0 mm 1 mps 732 mmHg 49%
02:00 +24°C° 0 mm 1 mps 732 mmHg 51%
03:00 +24°C° 0 mm 1 mps 732 mmHg 53%
04:00 +23°C° 0 mm 1 mps 732 mmHg 54%
05:00 +25°C° 0 mm 1 mps 732 mmHg 51%
06:00 +25°C° 0 mm 0 mps 732 mmHg 48%
07:00 +27°C° 0 mm 0 mps 733 mmHg 44%
08:00 +29°C° 0 mm 0 mps 732 mmHg 39%
09:00 +31°C° 0 mm 0 mps 732 mmHg 35%
10:00 +33°C° 0 mm 0 mps 732 mmHg 30%
11:00 +36°C° 0 mm 1 mps 732 mmHg 28%
12:00 +38°C° 0 mm 2 mps 731 mmHg 26%
13:00 +39°C° 0 mm 2 mps 731 mmHg 24%
14:00 +38°C° 0 mm 3 mps 731 mmHg 25%
15:00 +38°C° 0 mm 4 mps 730 mmHg 26%
16:00 +37°C° 0 mm 4 mps 730 mmHg 28%
17:00 +33°C° 0 mm 4 mps 730 mmHg 40%
18:00 +29°C° 0 mm 3 mps 731 mmHg 53%
19:00 +25°C° 0 mm 2 mps 731 mmHg 65%
20:00 +24°C° 0 mm 2 mps 732 mmHg 68%
21:00 +23°C° 0 mm 2 mps 732 mmHg 70%
22:00 +22°C° 0 mm 1 mps 732 mmHg 73%
23:00 +21°C° 0 mm 1 mps 732 mmHg 74%

Day after tomorrow, 27 June, Sunday

Time Temperature Precipitation Wind Pressure Humidity
00:00 +21°C° 0 mm 1 mps 733 mmHg 75%
01:00 +21°C° 0 mm 1 mps 733 mmHg 76%
02:00 +20°C° 0 mm 1 mps 733 mmHg 76%
03:00 +20°C° 0 mm 1 mps 733 mmHg 75%
04:00 +20°C° 0 mm 1 mps 732 mmHg 75%
05:00 +22°C° 0 mm 1 mps 733 mmHg 69%
06:00 +24°C° 0 mm 1 mps 733 mmHg 62%
07:00 +26°C° 0 mm 1 mps 733 mmHg 56%
08:00 +28°C° 0 mm 1 mps 733 mmHg 51%
09:00 +30°C° 0 mm 2 mps 733 mmHg 46%
10:00 +32°C° 0 mm 2 mps 733 mmHg 41%
11:00 +34°C° 0 mm 2 mps 732 mmHg 38%
12:00 +35°C° 0 mm 2 mps 732 mmHg 34%
13:00 +36°C° 0 mm 2 mps 732 mmHg 31%
14:00 +36°C° 0 mm 2 mps 732 mmHg 30%
15:00 +36°C° 0 mm 2 mps 732 mmHg 30%
16:00 +35°C° 0 mm 2 mps 731 mmHg 30%
17:00 +32°C° 0 mm 2 mps 731 mmHg 38%
18:00 +30°C° 0 mm 2 mps 732 mmHg 45%
19:00 +28°C° 0 mm 2 mps 732 mmHg 53%
20:00 +26°C° 0 mm 2 mps 732 mmHg 56%
21:00 +25°C° 0 mm 2 mps 733 mmHg 58%
22:00 +24°C° 0 mm 1 mps 733 mmHg 61%
23:00 +24°C° 0 mm 1 mps 733 mmHg 63%

28 June, Monday

Time Temperature Precipitation Wind Pressure Humidity
00:00 +23°C° 0 mm 1 mps 733 mmHg 64%
01:00 +23°C° 0 mm 1 mps 733 mmHg 66%
02:00 +22°C° 0 mm 1 mps 733 mmHg 67%
03:00 +22°C° 0 mm 1 mps 733 mmHg 68%
04:00 +22°C° 0 mm 1 mps 733 mmHg 68%
05:00 +24°C° 0 mm 1 mps 733 mmHg 62%
06:00 +26°C° 0 mm 1 mps 734 mmHg 56%
07:00 +26°C° 0 mm 0 mps 734 mmHg 50%
08:00 +30°C° 0 mm 1 mps 734 mmHg 45%
09:00 +32°C° 0 mm 1 mps 734 mmHg 41%
10:00 +34°C° 0 mm 1 mps 734 mmHg 36%
11:00 +34°C° 0 mm 1 mps 733 mmHg 33%
12:00 +35°C° 0 mm 1 mps 733 mmHg 31%
13:00 +36°C° 0 mm 1 mps 733 mmHg 28%
14:00 +36°C° 0 mm 1 mps 733 mmHg 28%
15:00 +36°C° 0 mm 1 mps 732 mmHg 28%
16:00 +36°C° 0 mm 1 mps 732 mmHg 28%
17:00 +34°C° 0 mm 1 mps 732 mmHg 33%
18:00 +32°C° 0 mm 1 mps 732 mmHg 39%
19:00 +29°C° 0 mm 1 mps 732 mmHg 45%
20:00 +28°C° 0 mm 1 mps 732 mmHg 47%
21:00 +27°C° 0 mm 1 mps 732 mmHg 49%
22:00 +26°C° 0 mm 1 mps 733 mmHg 51%
23:00 +25°C° 0 mm 1 mps 732 mmHg 53%

29 June, Tuesday

Time Temperature Precipitation Wind Pressure Humidity
00:00 +25°C° 0 mm 1 mps 732 mmHg 55%
01:00 +24°C° 0 mm 1 mps 732 mmHg 57%
02:00 +24°C° 0 mm 1 mps 732 mmHg 59%
03:00 +23°C° 0 mm 1 mps 732 mmHg 61%
04:00 +23°C° 0 mm 1 mps 732 mmHg 63%
05:00 +25°C° 0 mm 1 mps 732 mmHg 58%
06:00 +27°C° 0 mm 1 mps 733 mmHg 54%
07:00 +27°C° 0 mm 0 mps 733 mmHg 49%
08:00 +31°C° 0 mm 1 mps 733 mmHg 44%
09:00 +33°C° 0 mm 1 mps 733 mmHg 38%
10:00 +35°C° 0 mm 1 mps 732 mmHg 33%
11:00 +36°C° 0 mm 1 mps 732 mmHg 29%
12:00 +37°C° 0 mm 1 mps 732 mmHg 25%
13:00 +40°C° 0 mm 1 mps 731 mmHg 21%
14:00 +40°C° 0 mm 1 mps 731 mmHg 21%
15:00 +39°C° 0 mm 2 mps 731 mmHg 21%
16:00 +39°C° 0 mm 2 mps 730 mmHg 21%
17:00 +37°C° 0 mm 2 mps 730 mmHg 27%
18:00 +34°C° 0 mm 2 mps 730 mmHg 33%
19:00 +31°C° 0 mm 2 mps 730 mmHg 39%
20:00 +29°C° 0 mm 2 mps 730 mmHg 40%
21:00 +28°C° 0 mm 2 mps 730 mmHg 41%
22:00 +27°C° 0 mm 1 mps 731 mmHg 41%
23:00 +26°C° 0 mm 1 mps 731 mmHg 43%

30 June, Wednesday

Time Temperature Precipitation Wind Pressure Humidity
00:00 +25°C° 0 mm 1 mps 731 mmHg 46%
01:00 +25°C° 0 mm 1 mps 731 mmHg 48%
02:00 +24°C° 0 mm 1 mps 731 mmHg 52%
03:00 +23°C° 0 mm 1 mps 731 mmHg 55%
04:00 +23°C° 0 mm 1 mps 731 mmHg 59%
05:00 +25°C° 0 mm 1 mps 731 mmHg 56%
06:00 +27°C° 0 mm 1 mps 731 mmHg 52%
07:00 +28°C° 0 mm 2 mps 731 mmHg 48%
08:00 +31°C° 0 mm 2 mps 731 mmHg 42%
09:00 +34°C° 0 mm 2 mps 730 mmHg 35%
10:00 +37°C° 0 mm 2 mps 730 mmHg 28%
11:00 +38°C° 0 mm 2 mps 730 mmHg 25%
12:00 +40°C° 0 mm 3 mps 729 mmHg 22%
13:00 +42°C° 0 mm 3 mps 729 mmHg 18%
14:00 +41°C° 0 mm 4 mps 729 mmHg 19%
15:00 +41°C° 0 mm 4 mps 729 mmHg 19%
16:00 +40°C° 0 mm 5 mps 729 mmHg 19%
17:00 +37°C° 0 mm 4 mps 729 mmHg 26%
18:00 +34°C° 0 mm 3 mps 729 mmHg 33%
19:00 +30°C° 0 mm 3 mps 729 mmHg 39%
20:00 +29°C° 0 mm 2 mps 729 mmHg 40%
21:00 +27°C° 0 mm 2 mps 730 mmHg 40%
22:00 +26°C° 0 mm 2 mps 730 mmHg 40%
23:00 +25°C° 0 mm 2 mps 730 mmHg 41%
Show more

We Need Your Consent

Meteoprog and our Service Providers may store and access personal data such as cookies, device identifiers or other similar technologies on your device and process such data to personalise content and ads, as well as provide social media features and to analyse the traffic.

  • Store and/or access information on your device

    Cookies, device identifiers or other information can be stored or accessed on your device for the purposes indicated above.

  • Personalised ads and content, ad and content measurement, audience insights, and products development

    Ads and content can be personalised based on a profile. More data can be added to better personalise ads and content. Ad and content performance can be measured. Insights about the audience who saw the ads and content can be derived. Such data can be used to develop or improve user’s experience, systems and software.

By clicking ‘I Agree’ you will allow the use of indicated cookies, device identifiers, web beacons or other similar technologies. Your settings can be changed in the browser on your device.

For certain purposes, legitimate interests may be relied on, rather than consent. You can read more about this in our Privacy and Cookie Policy.